COSMOS 2251 DEB, 35287

Orbit data source: Space-Track

COSMOS 2251 DEB, 35287 is space debris in LEO originally from a launch on Wed, 16 Jun 1993 UTC launched from the Plesetsk Missile And Space Complex (PKMTR). The debris from Iridium 33, an American commercial communications satellite, has been tracked extensively since its accidental collision with the defunct Russian satellite Cosmos 2251 in 2009. This event, occurring at high speed in low Earth orbit (LEO), generated thousands of pieces of space debris, significantly increasing the risk of further collisions. The Iridium 33 debris cloud has impacted space traffic management and orbital debris mitigation strategies, making it a subject of ongoing study in space situational awareness.

Loading next visibility...
Identifier
35287, 1993-036AJR
Orbit
LEO
Country
Flag of CISCIS
Related business
Manufacturer
Unknown
Mission
Spacecraft
Bus & Motor
Unknown
Mass
Unknown
Launch date (UTC)
1993-06-16 (33 years ago)
Launch vehicle
Unknown
Launch site
Plesetsk Missile And Space Complex (PKMTR)
Object type
Payload
Rocket body
Debris
Shape & HBR
Unknown shape, 0.1 m
Radar Cross Section
Small (<0.1 m²)

Expand to show TLE details & history
Last TLE update: 2 days ago

TLE from 2 days ago
0 COSMOS 2251 DEB
1 35287U 93036AJR 26262.04942156  .00000153  00000-0  60748-4 0  9993
2 35287  74.0287 120.9668 0017697 156.8364 353.6442 14.36559318909178
Epoch: 2026-09-19T01:11Z
TLE epoch observation values (Epoch: 2026-09-19T01:11:10.022Z)
Latitude
28.34724°
Longitude
-83.62322°
Altitude
760.497 km
Speed
7.483 km/s
True Right ascension
19h 28m 31s
True Declination
28° 12' 14"
Sunlit
Object was in daylight at epoch
Visualization orbit readout
Latitude
Unknown
Longitude
Unknown
Altitude
Unknown
Speed
Unknown
Apparent Right ascension
Unknown
Apparent Declination
Unknown
Sunlit
N/A
Visualization observer readout
Local Sidereal Time
09:47:33
Azimuth
Unknown
Elevation
Unknown
Doppler factor
Unknown
Orbital elements
Apogee altitude
780.159 km
Perigee altitude
754.867 km
Semi-major axis
7,145.65 km
Eccentricity
0.00177
Inclination
74.0287°
RAAN
120.9668°
Arg. of periapsis
156.8364°
True anomaly
353.6217°
Mean anomaly
353.6442°
Eccentric anomaly
353.63296°
Mean motion
3.59319 °/min
Orbital period
100.19 mins
BSTAR
0.000060748

Documentation

Showing up to 5 results
|